2024-172G

Last updated on Thu Oct 17 2024 00:02:04 GMT+0000 (Coordinated Universal Time)

1 61226U 24172G 24290.23906840 .00008856 00000+0 89138-3 0 9990 2 61226 98.0144 17.0622 0055611 326.9736 32.8012 14.90272115 3716
UTC large
Height (km)
Speed (km/s)
/
Latitude / Longitude
Inclination (degrees)
Orbital Period (minutes)
Azimuth
Elevation
Range (km)
Doppler Factor

Next 0 passes for location: London (51.5072 / 0.1276)

Sorry there are no passes over London.